Time,TemperatureF,DewpointF,PressureIn,WindDirection,WindDirectionDegrees,WindSpeedMPH,WindSpeedGustMPH,Humidity,HourlyPrecipIn,Conditions,Clouds,dailyrainin,SoftwareType,DateUTC
2013-12-15 00:00:00,-0.4,-4.8,30.24,NW,315,8.0,11.5,81,0.00,,OVC060,0.00,VWS V14.01,2013-12-15 06:00:00,
2013-12-15 00:10:00,-0.5,-4.9,30.23,NW,314,6.0,12.6,81,0.00,,OVC060,0.00,VWS V14.01,2013-12-15 06:10:00,
2013-12-15 00:15:00,-0.6,-5.3,30.24,NW,311,4.0,12.6,80,0.00,,OVC060,0.00,VWS V14.01,2013-12-15 06:15:00,
2013-12-15 00:20:00,-0.5,-5.2,30.23,NW,326,8.0,8.4,80,0.00,,OVC060,0.00,VWS V14.01,2013-12-15 06:20:00,
2013-12-15 00:25:00,-0.5,-5.2,30.23,NW,326,8.0,8.4,80,0.00,,OVC050,0.00,VWS V14.01,2013-12-15 06:25:00,
2013-12-15 00:30:00,-0.6,-5.0,30.23,NW,311,6.0,9.4,81,0.00,,OVC050,0.00,VWS V14.01,2013-12-15 06:30:00,
2013-12-15 00:35:00,-0.7,-5.4,30.23,NW,319,6.0,11.5,80,0.00,,OVC050,0.00,VWS V14.01,2013-12-15 06:35:00,
2013-12-15 00:45:00,-0.8,-5.7,30.23,WNW,300,5.0,11.5,79,0.00,,OVC090,0.00,VWS V14.01,2013-12-15 06:45:00,
2013-12-15 00:50:00,-0.8,-5.7,30.23,WNW,300,7.0,10.5,79,0.00,,OVC090,0.00,VWS V14.01,2013-12-15 06:50:00,
2013-12-15 00:55:00,-0.8,-5.7,30.22,NW,313,5.0,9.4,79,0.00,,OVC090,0.00,VWS V14.01,2013-12-15 06:55:00,
2013-12-15 01:00:00,-0.8,-5.7,30.22,NW,305,4.0,10.5,79,0.00,,OVC090,0.00,VWS V14.01,2013-12-15 07:00:00,
2013-12-15 01:05:00,-0.8,-5.7,30.22,NW,317,5.0,9.4,79,0.00,,OVC090,0.00,VWS V14.01,2013-12-15 07:05:00,
2013-12-15 01:15:00,-0.8,-5.7,30.22,NW,316,3.0,10.5,79,0.00,,OVC090,0.00,VWS V14.01,2013-12-15 07:15:00,
2013-12-15 01:20:00,-0.8,-5.7,30.22,NNW,344,1.0,8.4,79,0.00,,OVC090,0.00,VWS V14.01,2013-12-15 07:20:00,
2013-12-15 01:25:00,-0.8,-5.7,30.21,NW,319,3.0,8.4,79,0.00,,OVC055,0.00,VWS V14.01,2013-12-15 07:25:00,
2013-12-15 01:35:00,-0.9,-5.8,30.21,NW,317,2.0,7.3,79,0.00,,OVC055,0.00,VWS V14.01,2013-12-15 07:35:00,
2013-12-15 01:40:00,-0.9,-5.8,30.21,NW,311,6.0,7.3,79,0.00,,OVC055,0.00,VWS V14.01,2013-12-15 07:40:00,
2013-12-15 01:45:00,-0.9,-6.1,30.22,NW,319,3.0,8.4,78,0.00,,OVC055,0.00,VWS V14.01,2013-12-15 07:45:00,
2013-12-15 01:50:00,-1.0,-6.2,30.22,NW,311,2.0,6.3,78,0.00,,OVC055,0.00,VWS V14.01,2013-12-15 07:50:00,
2013-12-15 02:00:00,-0.9,-5.8,30.23,NW,320,3.0,7.3,79,0.00,,OVC055,0.00,VWS V14.01,2013-12-15 08:00:00,
2013-12-15 02:05:00,-0.9,-6.1,30.23,NW,313,2.0,6.3,78,0.00,,OVC050,0.00,VWS V14.01,2013-12-15 08:05:00,
2013-12-15 02:10:00,-0.8,-5.7,30.23,NW,311,3.0,6.3,79,0.00,,OVC050,0.00,VWS V14.01,2013-12-15 08:10:00,
2013-12-15 02:15:00,-0.8,-5.7,30.24,NW,313,5.0,7.3,79,0.00,,OVC050,0.00,VWS V14.01,2013-12-15 08:15:00,
2013-12-15 02:20:00,-0.8,-5.7,30.24,NW,309,4.0,8.4,79,0.00,,OVC050,0.00,VWS V14.01,2013-12-15 08:20:00,
2013-12-15 02:25:00,-0.8,-5.7,30.24,WNW,302,3.0,7.3,79,0.00,,OVC050,0.00,VWS V14.01,2013-12-15 08:25:00,
2013-12-15 02:30:00,-0.9,-5.8,30.24,NW,305,5.0,9.4,79,0.00,,OVC050,0.00,VWS V14.01,2013-12-15 08:30:00,
2013-12-15 02:35:00,-0.8,-5.7,30.23,NW,318,4.0,8.4,79,0.00,,OVC050,0.00,VWS V14.01,2013-12-15 08:35:00,
2013-12-15 02:40:00,-0.8,-5.5,30.24,NW,306,5.0,5.2,80,0.00,,OVC050,0.00,VWS V14.01,2013-12-15 08:40:00,
2013-12-15 02:45:00,-0.7,-5.4,30.23,North,360,1.0,5.2,80,0.00,,OVC050,0.00,VWS V14.01,2013-12-15 08:45:00,
2013-12-15 02:50:00,-0.8,-5.5,30.23,NNW,327,4.0,5.2,80,0.00,,OVC050,0.00,VWS V14.01,2013-12-15 08:50:00,
2013-12-15 02:55:00,-0.7,-5.4,30.23,NW,319,2.0,7.3,80,0.00,,OVC050,0.00,VWS V14.01,2013-12-15 08:55:00,
2013-12-15 03:05:00,-0.8,-5.5,30.23,NW,308,3.0,7.3,80,0.00,,OVC046,0.00,VWS V14.01,2013-12-15 09:05:00,
2013-12-15 03:10:00,-0.8,-5.5,30.22,NW,314,1.0,5.2,80,0.00,,OVC046,0.00,VWS V14.01,2013-12-15 09:10:00,
2013-12-15 03:15:00,-0.9,-5.6,30.22,NW,315,4.0,5.2,80,0.00,,OVC046,0.00,VWS V14.01,2013-12-15 09:15:00,
2013-12-15 03:20:00,-0.8,-5.5,30.23,NW,319,3.0,7.3,80,0.00,,OVC046,0.00,VWS V14.01,2013-12-15 09:20:00,
2013-12-15 03:25:00,-0.8,-5.5,30.23,NW,313,2.0,5.2,80,0.00,,OVC044,0.00,VWS V14.01,2013-12-15 09:25:00,
2013-12-15 03:30:00,-0.7,-5.4,30.24,NW,311,4.0,8.4,80,0.00,,OVC044,0.00,VWS V14.01,2013-12-15 09:30:00,
2013-12-15 03:35:00,-0.7,-5.4,30.24,NW,317,5.0,5.2,80,0.00,,OVC044,0.00,VWS V14.01,2013-12-15 09:35:00,
2013-12-15 03:40:00,-0.7,-5.1,30.24,NW,306,0.0,5.2,81,0.00,,OVC042,0.00,VWS V14.01,2013-12-15 09:40:00,
2013-12-15 03:50:00,-0.7,-5.1,30.24,NW,315,4.0,8.4,81,0.00,,OVC042,0.00,VWS V14.01,2013-12-15 09:50:00,
2013-12-15 04:00:00,-0.8,-5.2,30.24,NW,311,2.0,5.2,81,0.00,,OVC042,0.00,VWS V14.01,2013-12-15 10:00:00,
2013-12-15 04:10:00,-0.8,-5.2,30.24,NW,311,3.0,8.4,81,0.00,,OVC040,0.00,VWS V14.01,2013-12-15 10:10:00,
2013-12-15 04:15:00,-0.8,-5.2,30.24,NW,304,4.0,8.4,81,0.00,,OVC040,0.00,VWS V14.01,2013-12-15 10:15:00,
2013-12-15 04:20:00,-0.8,-5.2,30.24,NW,306,4.0,6.3,81,0.00,,OVC038,0.00,VWS V14.01,2013-12-15 10:20:00,
2013-12-15 04:30:00,-0.8,-5.2,30.23,NW,311,5.0,8.4,81,0.00,,OVC038,0.00,VWS V14.01,2013-12-15 10:30:00,
2013-12-15 04:40:00,-0.9,-5.3,30.23,WNW,303,3.0,4.2,81,0.00,,OVC038,0.00,VWS V14.01,2013-12-15 10:40:00,
2013-12-15 04:45:00,-0.9,-5.3,30.23,NW,309,4.0,8.4,81,0.00,,OVC036,0.00,VWS V14.01,2013-12-15 10:45:00,
2013-12-15 04:50:00,-0.9,-5.3,30.23,NW,312,0.0,8.4,81,0.00,,OVC036,0.00,VWS V14.01,2013-12-15 10:50:00,
2013-12-15 04:55:00,-0.9,-5.3,30.23,NW,309,5.0,6.3,81,0.00,,OVC036,0.00,VWS V14.01,2013-12-15 10:55:00,
2013-12-15 05:00:00,-0.8,-5.2,30.22,NW,306,5.0,5.2,81,0.00,,OVC036,0.00,VWS V14.01,2013-12-15 11:00:00,
2013-12-15 05:05:00,-0.8,-5.0,30.22,NW,310,5.0,7.3,82,0.00,,OVC036,0.00,VWS V14.01,2013-12-15 11:05:00,
2013-12-15 05:10:00,-0.8,-5.2,30.23,NW,317,5.0,8.4,81,0.00,,OVC036,0.00,VWS V14.01,2013-12-15 11:10:00,
2013-12-15 05:15:00,-0.9,-5.3,30.23,NW,315,1.0,7.3,81,0.00,,OVC036,0.00,VWS V14.01,2013-12-15 11:15:00,
2013-12-15 05:20:00,-0.9,-5.1,30.23,NW,306,7.0,7.3,82,0.00,,OVC036,0.00,VWS V14.01,2013-12-15 11:20:00,
2013-12-15 05:30:00,-0.8,-5.0,30.23,NW,309,3.0,5.2,82,0.00,,OVC036,0.00,VWS V14.01,2013-12-15 11:30:00,
2013-12-15 05:35:00,-0.8,-5.0,30.22,NW,323,0.0,5.2,82,0.00,,OVC036,0.00,VWS V14.01,2013-12-15 11:35:00,
2013-12-15 05:40:00,-0.8,-5.0,30.21,NW,309,2.0,5.2,82,0.00,,OVC032,0.00,VWS V14.01,2013-12-15 11:40:00,
2013-12-15 05:50:00,-0.7,-4.9,30.22,NW,309,5.0,5.2,82,0.00,,OVC032,0.00,VWS V14.01,2013-12-15 11:50:00,
2013-12-15 05:55:00,-0.7,-4.9,30.22,NNW,329,0.0,5.2,82,0.00,,OVC032,0.00,VWS V14.01,2013-12-15 11:55:00,
2013-12-15 06:00:00,-0.7,-4.9,30.22,NW,306,4.0,6.3,82,0.00,,OVC032,0.00,VWS V14.01,2013-12-15 12:00:00,
2013-12-15 06:10:00,-0.5,-4.7,30.21,NW,306,1.0,4.2,82,0.00,,OVC034,0.00,VWS V14.01,2013-12-15 12:10:00,
2013-12-15 06:15:00,-0.6,-4.8,30.21,NW,316,1.0,4.2,82,0.00,,OVC034,0.00,VWS V14.01,2013-12-15 12:15:00,
2013-12-15 06:20:00,-0.6,-4.8,30.21,NW,311,1.0,4.2,82,0.00,,OVC042,0.00,VWS V14.01,2013-12-15 12:20:00,
2013-12-15 06:30:00,-0.4,-4.6,30.21,NW,319,0.0,3.1,82,0.00,,OVC042,0.00,VWS V14.01,2013-12-15 12:30:00,
2013-12-15 06:35:00,-0.3,-4.5,30.22,NW,312,0.0,4.2,82,0.00,,OVC042,0.00,VWS V14.01,2013-12-15 12:35:00,
2013-12-15 06:40:00,-0.3,-4.5,30.22,NW,317,4.0,4.2,82,0.00,,OVC042,0.00,VWS V14.01,2013-12-15 12:40:00,
2013-12-15 06:45:00,-0.3,-4.5,30.22,NW,312,1.0,5.2,82,0.00,,OVC039,0.00,VWS V14.01,2013-12-15 12:45:00,
2013-12-15 06:50:00,-0.3,-4.5,30.22,NW,312,2.0,5.2,82,0.00,,OVC039,0.00,VWS V14.01,2013-12-15 12:50:00,
2013-12-15 06:55:00,-0.3,-4.5,30.21,NW,313,2.0,4.2,82,0.00,,OVC039,0.00,VWS V14.01,2013-12-15 12:55:00,
2013-12-15 07:00:00,-0.2,-4.4,30.21,NW,313,2.0,4.2,82,0.00,,OVC039,0.00,VWS V14.01,2013-12-15 13:00:00,
2013-12-15 07:10:00,-0.1,-4.3,30.21,NW,314,2.0,3.1,82,0.00,,OVC039,0.00,VWS V14.01,2013-12-15 13:10:00,
2013-12-15 07:15:00,-0.1,-4.0,30.22,NW,325,2.0,6.3,83,0.00,,OVC039,0.00,VWS V14.01,2013-12-15 13:15:00,
2013-12-15 07:25:00,-0.1,-4.2,30.22,NNW,340,1.0,3.1,82,0.00,,OVC039,0.00,VWS V14.01,2013-12-15 13:25:00,
2013-12-15 07:30:00,-0.1,-3.9,30.21,NNW,327,0.0,4.2,83,0.00,,OVC039,0.00,VWS V14.01,2013-12-15 13:30:00,
2013-12-15 07:35:00,-0.1,-4.2,30.21,NNW,343,0.0,5.2,82,0.00,,OVC039,0.00,VWS V14.01,2013-12-15 13:35:00,
2013-12-15 07:40:00,0.1,-4.2,30.21,NW,323,3.0,4.2,82,0.00,,OVC039,0.00,VWS V14.01,2013-12-15 13:40:00,
2013-12-15 07:50:00,0.1,-3.9,30.21,North,351,4.0,6.3,83,0.00,,OVC039,0.00,VWS V14.01,2013-12-15 13:50:00,
2013-12-15 07:55:00,0.1,-4.2,30.22,NNW,337,5.0,9.4,82,0.00,,OVC039,0.00,VWS V14.01,2013-12-15 13:55:00,
2013-12-15 08:00:00,0.1,-4.1,30.22,North,355,4.0,6.3,82,0.00,,OVC039,0.00,VWS V14.01,2013-12-15 14:00:00,
2013-12-15 08:10:00,0.1,-3.8,30.22,North,351,4.0,6.3,83,0.00,,OVC037,0.00,VWS V14.01,2013-12-15 14:10:00,
2013-12-15 08:20:00,0.3,-3.6,30.23,NW,323,2.0,6.3,83,0.00,,OVC037,0.00,VWS V14.01,2013-12-15 14:20:00,
2013-12-15 08:25:00,0.4,-3.5,30.23,NNW,341,4.0,6.3,83,0.00,,OVC037,0.00,VWS V14.01,2013-12-15 14:25:00,
2013-12-15 08:35:00,0.5,-3.4,30.23,NNW,336,2.0,5.2,83,0.00,,OVC037,0.00,VWS V14.01,2013-12-15 14:35:00,
2013-12-15 08:45:00,0.6,-3.3,30.22,NNW,331,1.0,4.2,83,0.00,,OVC037,0.00,VWS V14.01,2013-12-15 14:45:00,
2013-12-15 08:50:00,0.7,-3.2,30.23,NW,324,0.0,4.2,83,0.00,,OVC037,0.00,VWS V14.01,2013-12-15 14:50:00,
2013-12-15 09:00:00,1.0,-2.9,30.23,NNW,332,0.0,4.2,83,0.00,,OVC037,0.00,VWS V14.01,2013-12-15 15:00:00,
2013-12-15 09:05:00,1.0,-2.9,30.22,NW,323,0.0,3.1,83,0.00,,,0.00,VWS V14.01,2013-12-15 15:05:00,
2013-12-15 09:15:00,1.2,-3.0,30.23,NW,315,1.0,6.3,82,0.00,,,0.00,VWS V14.01,2013-12-15 15:15:00,
2013-12-15 09:25:00,1.4,-2.8,30.23,NNW,347,2.0,5.2,82,0.00,,,0.00,VWS V14.01,2013-12-15 15:25:00,
2013-12-15 09:30:00,1.4,-3.1,30.23,North,355,3.0,8.4,81,0.00,,,0.00,VWS V14.01,2013-12-15 15:30:00,
2013-12-15 09:35:00,1.6,-2.6,30.24,NNW,336,0.0,4.2,82,0.00,,,0.00,VWS V14.01,2013-12-15 15:35:00,
2013-12-15 09:40:00,1.6,-2.9,30.23,North,9,4.0,8.4,81,0.00,,,0.00,VWS V14.01,2013-12-15 15:40:00,
2013-12-15 09:45:00,1.8,-2.7,30.23,NW,323,1.0,5.2,81,0.00,,,0.00,VWS V14.01,2013-12-15 15:45:00,
2013-12-15 09:50:00,2.0,-2.5,30.24,NNW,328,0.0,5.2,81,0.00,,,0.00,VWS V14.01,2013-12-15 15:50:00,
2013-12-15 09:55:00,2.0,-2.5,30.24,NW,325,0.0,4.2,81,0.00,,,0.00,VWS V14.01,2013-12-15 15:55:00,
2013-12-15 10:00:00,2.2,-2.3,30.24,NNE,27,2.0,5.2,81,0.00,,,0.00,VWS V14.01,2013-12-15 16:00:00,
2013-12-15 10:05:00,2.2,-2.3,30.24,NNW,328,0.0,2.1,81,0.00,,,0.00,VWS V14.01,2013-12-15 16:05:00,
2013-12-15 10:10:00,2.3,-2.4,30.24,WNW,302,0.0,4.2,80,0.00,,,0.00,VWS V14.01,2013-12-15 16:10:00,
2013-12-15 10:15:00,2.3,-2.4,30.24,NNE,30,0.0,5.2,80,0.00,,,0.00,VWS V14.01,2013-12-15 16:15:00,
2013-12-15 10:25:00,2.4,-2.6,30.24,NW,317,0.0,4.2,79,0.00,,,0.00,VWS V14.01,2013-12-15 16:25:00,
2013-12-15 10:30:00,2.6,-2.4,30.24,North,11,0.0,5.2,79,0.00,,,0.00,VWS V14.01,2013-12-15 16:30:00,
2013-12-15 10:40:00,2.8,-2.2,30.24,NE,39,2.0,3.1,79,0.00,,,0.00,VWS V14.01,2013-12-15 16:40:00,
2013-12-15 10:45:00,2.8,-2.5,30.24,NNE,23,0.0,4.2,78,0.00,,,0.00,VWS V14.01,2013-12-15 16:45:00,
2013-12-15 10:55:00,3.0,-2.3,30.24,NNE,12,0.0,4.2,78,0.00,,,0.00,VWS V14.01,2013-12-15 16:55:00,
2013-12-15 11:00:00,3.1,-2.2,30.24,North,11,1.0,4.2,78,0.00,,,0.00,VWS V14.01,2013-12-15 17:00:00,
2013-12-15 11:10:00,3.2,-2.4,30.24,North,5,0.0,0.0,77,0.00,,,0.00,VWS V14.01,2013-12-15 17:10:00,
2013-12-15 11:15:00,3.4,-1.9,30.24,North,360,1.0,2.1,78,0.00,,,0.00,VWS V14.01,2013-12-15 17:15:00,
2013-12-15 11:20:00,3.5,-2.1,30.24,North,355,0.0,1.0,77,0.00,,,0.00,VWS V14.01,2013-12-15 17:20:00,
2013-12-15 11:25:00,3.6,-2.0,30.24,NW,313,0.0,0.0,77,0.00,,OVC090,0.00,VWS V14.01,2013-12-15 17:25:00,
2013-12-15 11:35:00,4.0,-1.9,30.23,NE,35,0.0,2.1,76,0.00,,OVC090,0.00,VWS V14.01,2013-12-15 17:35:00,
2013-12-15 11:40:00,4.1,-1.5,30.23,NW,325,0.0,0.0,77,0.00,,OVC090,0.00,VWS V14.01,2013-12-15 17:40:00,
2013-12-15 11:45:00,4.2,-1.7,30.22,NW,309,0.0,0.0,76,0.00,,OVC090,0.00,VWS V14.01,2013-12-15 17:45:00,
2013-12-15 11:50:00,4.2,-1.7,30.22,NW,315,0.0,0.0,76,0.00,,OVC090,0.00,VWS V14.01,2013-12-15 17:50:00,
2013-12-15 11:55:00,4.1,-1.8,30.22,NW,316,0.0,0.0,76,0.00,,OVC090,0.00,VWS V14.01,2013-12-15 17:55:00,
2013-12-15 12:00:00,4.0,-1.9,30.22,NW,315,0.0,0.0,76,0.00,,OVC090,0.00,VWS V14.01,2013-12-15 18:00:00,
2013-12-15 12:05:00,4.0,-1.9,30.21,NW,315,0.0,0.0,76,0.00,,OVC090,0.00,VWS V14.01,2013-12-15 18:05:00,
2013-12-15 12:10:00,4.3,-1.6,30.21,NW,317,0.0,0.0,76,0.00,,OVC090,0.00,VWS V14.01,2013-12-15 18:10:00,
2013-12-15 12:20:00,4.6,-1.3,30.19,WNW,300,0.0,0.0,76,0.00,,OVC080,0.00,VWS V14.01,2013-12-15 18:20:00,
2013-12-15 12:25:00,4.5,-1.4,30.20,WNW,301,0.0,0.0,76,0.00,,OVC080,0.00,VWS V14.01,2013-12-15 18:25:00,
2013-12-15 12:30:00,4.6,-1.3,30.19,NNE,28,3.0,5.2,76,0.00,,OVC080,0.00,VWS V14.01,2013-12-15 18:30:00,
2013-12-15 12:35:00,4.4,-1.5,30.19,NE,53,0.0,3.1,76,0.00,,OVC080,0.00,VWS V14.01,2013-12-15 18:35:00,
2013-12-15 12:40:00,4.0,-1.9,30.19,ENE,65,0.0,4.2,76,0.00,,OVC080,0.00,VWS V14.01,2013-12-15 18:40:00,
2013-12-15 12:45:00,3.8,-1.8,30.19,NE,35,0.0,4.2,77,0.00,,,0.00,VWS V14.01,2013-12-15 18:45:00,
2013-12-15 12:50:00,3.7,-1.9,30.19,ENE,72,1.0,5.2,77,0.00,,,0.00,VWS V14.01,2013-12-15 18:50:00,
2013-12-15 12:55:00,3.8,-1.5,30.19,ENE,71,3.0,3.1,78,0.00,,,0.00,VWS V14.01,2013-12-15 18:55:00,
2013-12-15 13:00:00,3.8,-1.8,30.18,NE,46,0.0,4.2,77,0.00,,,0.00,VWS V14.01,2013-12-15 19:00:00,
2013-12-15 13:05:00,3.8,-1.8,30.19,NE,44,0.0,2.1,77,0.00,,OVC080,0.00,VWS V14.01,2013-12-15 19:05:00,
2013-12-15 13:15:00,3.9,-1.7,30.18,NE,55,2.0,5.2,77,0.00,,OVC080,0.00,VWS V14.01,2013-12-15 19:15:00,
2013-12-15 13:20:00,3.9,-1.7,30.18,ENE,71,4.0,5.2,77,0.00,,OVC080,0.00,VWS V14.01,2013-12-15 19:20:00,
2013-12-15 13:25:00,3.9,-1.7,30.18,ENE,71,0.0,4.2,77,0.00,,,0.00,VWS V14.01,2013-12-15 19:25:00,
2013-12-15 13:30:00,4.0,-1.6,30.19,NE,42,0.0,4.2,77,0.00,,,0.00,VWS V14.01,2013-12-15 19:30:00,
2013-12-15 13:35:00,4.1,-1.5,30.18,NE,42,0.0,0.0,77,0.00,,,0.00,VWS V14.01,2013-12-15 19:35:00,
2013-12-15 13:45:00,4.4,-1.2,30.18,ENE,57,1.0,4.2,77,0.00,,,0.00,VWS V14.01,2013-12-15 19:45:00,
2013-12-15 13:55:00,4.3,-1.6,30.17,NNE,20,0.0,3.1,76,0.00,,,0.00,VWS V14.01,2013-12-15 19:55:00,
2013-12-15 14:00:00,4.3,-1.6,30.17,ENE,67,0.0,5.2,76,0.00,,,0.00,VWS V14.01,2013-12-15 20:00:00,
2013-12-15 14:10:00,4.3,-1.6,30.18,NE,44,0.0,3.1,76,0.00,,OVC065,0.00,VWS V14.01,2013-12-15 20:10:00,
2013-12-15 14:20:00,4.6,-1.3,30.18,ENE,71,0.0,3.1,76,0.00,,OVC065,0.00,VWS V14.01,2013-12-15 20:20:00,
2013-12-15 14:25:00,4.6,-1.3,30.18,ENE,71,0.0,0.0,76,0.00,,OVC065,0.00,VWS V14.01,2013-12-15 20:25:00,
2013-12-15 14:35:00,4.7,-0.9,30.19,ENE,71,0.0,0.0,77,0.00,,,0.00,VWS V14.01,2013-12-15 20:35:00,
2013-12-15 14:40:00,4.8,-0.8,30.18,ENE,71,0.0,0.0,77,0.00,,,0.00,VWS V14.01,2013-12-15 20:40:00,
2013-12-15 14:50:00,4.6,-1.3,30.18,ENE,73,0.0,0.0,76,0.00,,,0.00,VWS V14.01,2013-12-15 20:50:00,
2013-12-15 14:55:00,4.7,-0.9,30.18,ENE,74,0.0,0.0,77,0.00,,,0.00,VWS V14.01,2013-12-15 20:55:00,
2013-12-15 15:00:00,4.8,-0.5,30.19,ENE,74,0.0,0.0,78,0.00,,,0.00,VWS V14.01,2013-12-15 21:00:00,
2013-12-15 15:10:00,4.8,-0.5,30.19,East,86,0.0,0.0,78,0.00,,,0.00,VWS V14.01,2013-12-15 21:10:00,
2013-12-15 15:15:00,4.7,-0.6,30.18,East,86,2.0,2.1,78,0.00,,,0.00,VWS V14.01,2013-12-15 21:15:00,
2013-12-15 15:20:00,4.6,-0.7,30.18,ENE,71,2.0,4.2,78,0.00,,,0.00,VWS V14.01,2013-12-15 21:20:00,
2013-12-15 15:30:00,4.4,-0.7,30.18,ENE,74,3.0,5.2,79,0.00,,,0.00,VWS V14.01,2013-12-15 21:30:00,
2013-12-15 15:35:00,4.4,-0.4,30.17,ENE,63,5.0,6.3,80,0.00,,,0.00,VWS V14.01,2013-12-15 21:35:00,
2013-12-15 15:45:00,4.2,-0.6,30.18,ENE,72,4.0,6.3,80,0.00,,,0.00,VWS V14.01,2013-12-15 21:45:00,
2013-12-15 15:55:00,4.2,-0.6,30.18,East,86,3.0,5.2,80,0.00,,,0.00,VWS V14.01,2013-12-15 21:55:00,
2013-12-15 16:05:00,4.1,-0.7,30.18,East,87,3.0,3.1,80,0.00,,,0.00,VWS V14.01,2013-12-15 22:05:00,
2013-12-15 16:15:00,4.1,-0.4,30.18,East,86,2.0,4.2,81,0.00,,,0.00,VWS V14.01,2013-12-15 22:15:00,
2013-12-15 16:20:00,4.1,-0.4,30.18,East,86,1.0,4.2,81,0.00,,,0.00,VWS V14.01,2013-12-15 22:20:00,
2013-12-15 16:25:00,4.1,-0.4,30.19,East,101,6.0,6.3,81,0.00,,,0.00,VWS V14.01,2013-12-15 22:25:00,
2013-12-15 16:30:00,4.0,-0.5,30.18,East,98,3.0,6.3,81,0.00,,,0.00,VWS V14.01,2013-12-15 22:30:00,
2013-12-15 16:35:00,4.0,-0.3,30.18,East,100,4.0,6.3,82,0.00,,,0.00,VWS V14.01,2013-12-15 22:35:00,
2013-12-15 16:40:00,3.8,-0.5,30.19,East,96,3.0,6.3,82,0.00,,,0.00,VWS V14.01,2013-12-15 22:40:00,
2013-12-15 16:45:00,3.8,-0.5,30.19,East,90,4.0,6.3,82,0.00,,,0.00,VWS V14.01,2013-12-15 22:45:00,
2013-12-15 16:50:00,3.8,-0.5,30.19,East,96,4.0,7.3,82,0.00,,,0.00,VWS V14.01,2013-12-15 22:50:00,
2013-12-15 17:00:00,3.7,-0.6,30.18,East,95,4.0,6.3,82,0.00,,,0.00,VWS V14.01,2013-12-15 23:00:00,
2013-12-15 17:05:00,3.7,-0.6,30.18,East,82,3.0,7.3,82,0.00,,,0.00,VWS V14.01,2013-12-15 23:05:00,
2013-12-15 17:15:00,3.8,-0.2,30.19,East,82,3.0,5.2,83,0.00,,,0.00,VWS V14.01,2013-12-15 23:15:00,
2013-12-15 17:20:00,3.8,-0.2,30.19,East,85,2.0,5.2,83,0.00,,,0.00,VWS V14.01,2013-12-15 23:20:00,
2013-12-15 17:25:00,3.7,-0.3,30.19,East,89,4.0,6.3,83,0.00,,,0.00,VWS V14.01,2013-12-15 23:25:00,
2013-12-15 17:35:00,3.7,-0.3,30.19,ENE,75,4.0,7.3,83,0.00,,,0.00,VWS V14.01,2013-12-15 23:35:00,
2013-12-15 17:40:00,3.7,-0.3,30.19,East,85,4.0,6.3,83,0.00,,,0.00,VWS V14.01,2013-12-15 23:40:00,
2013-12-15 17:50:00,3.7,0.0,30.18,East,98,6.0,6.3,84,0.00,,,0.00,VWS V14.01,2013-12-15 23:50:00,
2013-12-15 17:55:00,3.7,0.0,30.18,ESE,105,3.0,7.3,84,0.00,,,0.00,VWS V14.01,2013-12-15 23:55:00,
2013-12-15 18:00:00,3.7,0.0,30.19,ESE,104,4.0,6.3,84,0.00,,,0.00,VWS V14.01,2013-12-16 00:00:00,
2013-12-15 18:10:00,3.7,0.0,30.19,ESE,108,1.0,6.3,84,0.00,,,0.00,VWS V14.01,2013-12-16 00:10:00,
2013-12-15 18:15:00,3.7,0.2,30.19,ESE,109,4.0,4.2,85,0.00,,,0.00,VWS V14.01,2013-12-16 00:15:00,
2013-12-15 18:20:00,3.7,0.2,30.20,East,101,4.0,6.3,85,0.00,,,0.00,VWS V14.01,2013-12-16 00:20:00,
2013-12-15 18:25:00,3.7,0.2,30.20,ESE,103,1.0,4.2,85,0.00,,,0.00,VWS V14.01,2013-12-16 00:25:00,
2013-12-15 18:35:00,3.7,0.2,30.19,ESE,109,4.0,6.3,85,0.00,,,0.00,VWS V14.01,2013-12-16 00:35:00,
2013-12-15 18:45:00,3.7,0.2,30.17,ESE,121,4.0,7.3,85,0.00,,,0.00,VWS V14.01,2013-12-16 00:45:00,
2013-12-15 18:50:00,3.6,0.1,30.19,SE,127,3.0,5.2,85,0.00,,,0.00,VWS V14.01,2013-12-16 00:50:00,
2013-12-15 19:00:00,3.7,0.2,30.20,ESE,123,2.0,4.2,85,0.00,,,0.00,VWS V14.01,2013-12-16 01:00:00,
2013-12-15 19:05:00,3.8,0.6,30.19,East,100,6.0,6.3,86,0.00,,,0.00,VWS V14.01,2013-12-16 01:05:00,
2013-12-15 19:15:00,3.9,0.4,30.19,ESE,102,4.0,7.3,85,0.00,,,0.00,VWS V14.01,2013-12-16 01:15:00,
2013-12-15 19:20:00,3.9,0.6,30.19,East,90,7.0,8.4,86,0.00,,,0.00,VWS V14.01,2013-12-16 01:20:00,
2013-12-15 19:25:00,3.9,0.4,30.19,East,97,6.0,8.4,85,0.00,,,0.00,VWS V14.01,2013-12-16 01:25:00,
2013-12-15 19:30:00,3.9,0.4,30.19,ESE,105,6.0,8.4,85,0.00,,,0.00,VWS V14.01,2013-12-16 01:30:00,
2013-12-15 19:35:00,3.9,0.4,30.19,ESE,105,6.0,7.3,85,0.00,,,0.00,VWS V14.01,2013-12-16 01:35:00,
2013-12-15 19:45:00,4.0,0.5,30.17,SE,126,8.0,10.5,85,0.00,,,0.00,VWS V14.01,2013-12-16 01:45:00,
2013-12-15 19:50:00,4.0,0.5,30.17,ESE,115,4.0,9.4,85,0.00,,,0.00,VWS V14.01,2013-12-16 01:50:00,
2013-12-15 19:55:00,4.1,0.6,30.18,ESE,111,6.0,8.4,85,0.00,,,0.00,VWS V14.01,2013-12-16 01:55:00,
2013-12-15 20:00:00,4.1,0.6,30.18,ESE,104,8.0,9.4,85,0.00,,,0.00,VWS V14.01,2013-12-16 02:00:00,
2013-12-15 20:05:00,4.2,0.7,30.18,ESE,103,7.0,8.4,85,0.00,,,0.00,VWS V14.01,2013-12-16 02:05:00,
2013-12-15 20:10:00,4.3,0.8,30.18,ESE,115,6.0,8.4,85,0.00,,,0.00,VWS V14.01,2013-12-16 02:10:00,
2013-12-15 20:20:00,4.4,0.9,30.19,East,101,7.0,9.4,85,0.00,,,0.00,VWS V14.01,2013-12-16 02:20:00,
2013-12-15 20:25:00,4.4,0.6,30.19,East,96,8.0,9.4,84,0.00,,,0.00,VWS V14.01,2013-12-16 02:25:00,
2013-12-15 20:35:00,4.5,0.7,30.18,East,100,8.0,9.4,84,0.00,,,0.00,VWS V14.01,2013-12-16 02:35:00,
2013-12-15 20:40:00,4.5,1.0,30.18,SE,130,8.0,9.4,85,0.00,,,0.00,VWS V14.01,2013-12-16 02:40:00,
2013-12-15 20:45:00,4.6,0.8,30.18,ESE,117,6.0,9.4,84,0.00,,OVC046,0.00,VWS V14.01,2013-12-16 02:45:00,
2013-12-15 20:50:00,4.6,0.8,30.18,ESE,107,7.0,9.4,84,0.00,,OVC046,0.00,VWS V14.01,2013-12-16 02:50:00,
2013-12-15 20:55:00,4.6,0.8,30.18,ESE,117,8.0,9.4,84,0.00,,OVC046,0.00,VWS V14.01,2013-12-16 02:55:00,
2013-12-15 21:00:00,4.6,0.8,30.18,ESE,106,6.0,8.4,84,0.00,,OVC046,0.00,VWS V14.01,2013-12-16 03:00:00,
2013-12-15 21:05:00,4.7,1.2,30.18,ESE,121,7.0,9.4,85,0.00,,OVC046,0.00,VWS V14.01,2013-12-16 03:05:00,
2013-12-15 21:15:00,4.7,0.9,30.17,ESE,117,8.0,10.5,84,0.00,,OVC046,0.00,VWS V14.01,2013-12-16 03:15:00,
2013-12-15 21:20:00,4.8,1.3,30.17,ESE,110,8.0,10.5,85,0.00,,OVC046,0.00,VWS V14.01,2013-12-16 03:20:00,
2013-12-15 21:25:00,4.8,1.3,30.17,ESE,112,10.0,10.5,85,0.00,,OVC046,0.00,VWS V14.01,2013-12-16 03:25:00,
2013-12-15 21:30:00,4.7,0.9,30.17,ESE,119,8.0,11.5,84,0.00,,OVC046,0.00,VWS V14.01,2013-12-16 03:30:00,
2013-12-15 21:35:00,4.7,0.9,30.17,ESE,103,7.0,10.5,84,0.00,,OVC046,0.00,VWS V14.01,2013-12-16 03:35:00,
2013-12-15 21:40:00,4.8,1.3,30.18,ESE,121,7.0,9.4,85,0.00,,OVC046,0.00,VWS V14.01,2013-12-16 03:40:00,
2013-12-15 21:45:00,4.9,1.4,30.18,ESE,112,9.0,9.4,85,0.00,,OVC040,0.00,VWS V14.01,2013-12-16 03:45:00,
2013-12-15 21:50:00,4.9,1.4,30.17,ESE,105,7.0,9.4,85,0.00,,OVC040,0.00,VWS V14.01,2013-12-16 03:50:00,
2013-12-15 22:00:00,4.9,1.4,30.18,ESE,113,6.0,9.4,85,0.00,,OVC040,0.00,VWS V14.01,2013-12-16 04:00:00,
2013-12-15 22:05:00,5.0,1.5,30.17,ESE,119,8.0,9.4,85,0.00,,OVC040,0.00,VWS V14.01,2013-12-16 04:05:00,
2013-12-15 22:10:00,5.0,1.5,30.17,ESE,105,7.0,9.4,85,0.00,,OVC040,0.00,VWS V14.01,2013-12-16 04:10:00,
2013-12-15 22:20:00,5.0,1.5,30.17,ESE,109,8.0,9.4,85,0.00,,OVC040,0.00,VWS V14.01,2013-12-16 04:20:00,
2013-12-15 22:25:00,5.0,1.5,30.18,ESE,119,8.0,9.4,85,0.00,,OVC055,0.00,VWS V14.01,2013-12-16 04:25:00,
2013-12-15 22:30:00,5.0,1.5,30.17,ESE,109,8.0,11.5,85,0.00,,OVC055,0.00,VWS V14.01,2013-12-16 04:30:00,
2013-12-15 22:40:00,5.1,1.6,30.17,ESE,119,7.0,10.5,85,0.00,,OVC055,0.00,VWS V14.01,2013-12-16 04:40:00,
2013-12-15 22:45:00,5.1,1.6,30.17,SE,126,9.0,10.5,85,0.00,,,0.00,VWS V14.01,2013-12-16 04:45:00,
2013-12-15 22:50:00,5.1,1.6,30.17,ESE,119,10.0,12.6,85,0.00,,,0.00,VWS V14.01,2013-12-16 04:50:00,
2013-12-15 22:55:00,5.1,1.6,30.17,ESE,116,10.0,11.5,85,0.00,,,0.00,VWS V14.01,2013-12-16 04:55:00,
2013-12-15 23:00:00,5.1,1.3,30.16,SE,128,5.0,12.6,84,0.00,,,0.00,VWS V14.01,2013-12-16 05:00:00,
2013-12-15 23:05:00,5.1,1.6,30.17,ESE,123,9.0,11.5,85,0.00,,OVC032,0.00,VWS V14.01,2013-12-16 05:05:00,
2013-12-15 23:10:00,5.1,1.6,30.17,SE,128,8.0,11.5,85,0.00,,OVC032,0.00,VWS V14.01,2013-12-16 05:10:00,
2013-12-15 23:15:00,5.1,1.6,30.17,ESE,122,8.0,12.6,85,0.00,,OVC032,0.00,VWS V14.01,2013-12-16 05:15:00,
2013-12-15 23:20:00,5.1,1.6,30.16,SE,132,10.0,14.7,85,0.00,,OVC032,0.00,VWS V14.01,2013-12-16 05:20:00,
2013-12-15 23:25:00,5.1,1.6,30.16,SE,133,11.0,13.6,85,0.00,,OVC025,0.00,VWS V14.01,2013-12-16 05:25:00,
2013-12-15 23:30:00,5.0,1.2,30.15,SE,133,11.0,13.6,84,0.00,,OVC025,0.00,VWS V14.01,2013-12-16 05:30:00,
2013-12-15 23:35:00,5.1,1.6,30.15,ESE,117,12.0,14.7,85,0.00,,OVC025,0.00,VWS V14.01,2013-12-16 05:35:00,
2013-12-15 23:40:00,5.0,1.5,30.16,ESE,123,8.0,14.7,85,0.00,,OVC023,0.00,VWS V14.01,2013-12-16 05:40:00,
2013-12-15 23:45:00,4.9,1.1,30.16,SE,130,8.0,13.6,84,0.00,,OVC023,0.00,VWS V14.01,2013-12-16 05:45:00,
2013-12-15 23:50:00,5.0,1.5,30.16,SE,131,9.0,13.6,85,0.00,,OVC023,0.00,VWS V14.01,2013-12-16 05:50:00,
2013-12-15 23:55:00,5.0,1.5,30.16,ESE,118,11.0,11.5,85,0.00,,OVC023,0.00,VWS V14.01,2013-12-16 05:55:00,